Theta_e
356 356 355 355 357 361 361 359 361 363 359 342 338 343 344 345 346 346 347 347 349 351 351 350 349 348 352 354 353 352 350 351 348 348 349 347 346 347 347 347 348 348 347 347 349 348 348 349 348 347 347 346 346 346 345 346 347 345 344 344 344 344 344 343 343 342 341 341 341 341 341 341 341 341 340 338 338 336 335 335 336 335 333 331 331 332 335 336 336 336 336 337 337 338 337 336 337
361 362 361 361 360 362 363 360 365 361 347 335 338 343 343 346 345 346 348 347 349 350 350 348 349 350 350 350 348 349 351 351 348 347 347 346 347 347 347 347 347 348 348 346 348 347 347 347 346 345 346 346 345 345 345 345 346 345 345 345 344 344 343 343 343 343 342 341 341 341 341 341 340 340 340 338 336 335 334 335 335 333 331 330 332 334 336 336 336 337 337 337 337 337 337 337 337
362 362 362 363 361 361 359 362 366 348 335 335 337 342 344 346 345 346 346 346 349 349 350 348 349 349 348 349 348 350 351 349 345 345 347 346 348 348 348 347 347 347 348 347 347 347 346 346 345 345 346 345 345 345 344 344 345 346 347 346 345 344 344 343 343 343 342 342 341 341 340 340 340 339 339 338 336 334 334 334 333 332 331 333 335 336 337 336 336 337 336 336 336 337 338 339 337
359 360 362 363 363 363 362 367 368 344 332 335 335 342 345 346 346 345 345 346 346 347 347 348 350 348 347 351 349 350 351 349 345 345 347 346 347 348 348 347 346 346 346 347 347 347 346 346 346 345 345 345 346 346 345 345 346 347 346 345 345 344 343 343 343 342 341 341 340 340 340 340 340 340 339 338 337 335 334 334 333 333 334 335 337 338 337 336 337 337 337 336 337 337 339 338 337
357 359 360 362 365 366 367 367 362 342 334 336 334 337 342 344 344 343 343 343 344 346 346 348 349 347 347 350 350 351 350 348 345 344 347 347 346 347 347 346 346 345 346 346 347 347 346 346 345 345 345 344 345 346 346 345 345 345 344 344 344 343 342 342 342 341 340 340 341 340 340 340 340 339 339 338 337 337 335 335 335 336 336 337 338 338 337 336 336 336 336 336 337 338 338 337 336
354 355 356 361 363 360 364 352 339 336 336 339 335 336 342 343 344 344 344 344 345 345 344 346 347 348 350 349 348 349 349 347 346 345 348 347 346 346 346 346 345 345 345 345 346 345 345 345 344 344 345 345 345 345 345 345 343 343 343 343 343 342 342 342 342 341 342 341 341 341 341 340 340 340 339 339 338 337 337 336 336 336 337 337 337 336 335 335 335 335 335 336 337 338 337 336 336
354 354 354 358 358 357 361 341 331 335 337 339 337 340 344 343 343 343 344 345 346 345 343 345 346 348 350 350 349 350 349 347 345 346 346 347 347 347 347 346 345 345 345 346 345 345 344 343 343 344 345 345 344 344 343 342 342 343 343 343 343 343 343 343 343 342 342 342 342 341 341 340 340 339 339 339 338 338 337 336 335 336 335 335 334 333 333 333 333 334 334 335 336 337 337 336 336
356 355 354 358 359 356 352 337 335 339 336 338 338 341 341 341 343 342 344 345 346 346 345 346 346 349 351 351 352 351 349 346 345 346 347 347 348 348 347 347 345 345 345 346 346 345 345 344 344 344 344 344 343 343 341 341 342 342 342 343 343 344 344 344 343 343 343 342 341 341 340 340 339 339 339 339 339 338 336 335 335 334 334 333 333 332 333 334 335 335 336 337 338 338 337 337 336
354 354 353 355 354 347 343 338 338 337 337 336 336 338 337 340 343 342 344 345 347 347 347 348 347 350 352 352 352 351 348 346 345 346 347 348 348 348 348 347 345 344 344 345 346 345 345 344 344 344 344 344 343 341 341 341 342 342 342 343 343 344 343 343 342 342 342 342 341 341 340 340 339 339 339 338 337 336 335 334 334 333 333 333 334 334 335 336 337 337 338 338 338 339 339 338 337
351 352 348 353 355 344 338 339 337 335 336 334 335 334 336 341 343 343 345 346 347 348 349 349 349 351 352 352 353 352 348 345 346 347 348 347 347 347 346 346 345 344 343 344 344 343 342 343 343 344 344 344 343 341 341 342 341 342 342 342 342 342 342 341 341 341 341 340 340 339 339 338 337 336 335 335 334 334 334 334 334 335 335 335 336 336 337 337 338 338 338 338 338 339 340 339 338
350 347 345 354 358 345 336 338 337 338 338 336 337 336 339 343 344 345 346 347 347 350 350 350 350 351 352 352 354 352 348 347 348 348 348 347 346 345 345 344 344 343 342 342 342 341 341 342 343 344 344 344 343 343 342 342 342 343 342 341 340 341 341 341 341 340 340 339 338 337 337 336 335 335 334 334 333 334 334 335 336 337 337 337 338 338 339 339 338 338 338 337 337 338 339 340 340
346 347 358 355 348 348 342 338 337 338 339 338 339 340 344 343 346 347 347 347 346 349 349 350 351 351 352 352 353 352 349 349 348 348 348 346 345 344 343 343 343 343 342 342 342 342 343 344 344 344 344 344 343 344 344 343 343 343 342 341 340 339 340 340 340 339 339 338 338 337 337 336 336 336 336 335 335 336 336 337 338 339 339 339 339 340 340 339 338 337 337 337 336 336 338 340 340
343 350 370 353 342 352 348 343 342 342 338 338 339 339 344 344 346 346 346 347 346 348 348 349 349 351 352 352 354 353 351 351 350 348 346 344 344 343 342 342 342 343 343 342 342 343 344 344 344 345 345 344 344 344 344 344 344 343 342 340 340 339 339 340 339 339 339 339 338 337 337 337 337 336 337 337 337 337 338 338 339 340 340 340 341 340 339 338 337 337 336 336 336 336 337 338 338
342 345 365 357 346 352 346 345 347 342 337 336 337 337 341 342 345 346 346 347 347 349 347 347 348 350 353 353 354 354 354 352 350 348 346 344 343 342 341 342 342 343 342 342 342 343 344 344 344 344 344 344 344 344 344 345 344 343 342 340 340 341 341 341 341 340 339 338 337 336 336 336 336 337 337 337 337 338 338 339 339 340 341 341 341 340 338 338 338 336 337 337 336 335 335 336 336
341 339 361 363 349 345 343 345 345 340 337 336 338 337 339 341 344 346 348 349 348 348 347 347 346 349 351 353 354 355 354 352 350 350 349 346 343 342 342 342 342 343 342 342 342 342 343 343 343 343 343 343 343 344 344 344 344 342 341 340 341 341 342 342 341 340 338 337 336 335 335 336 336 336 337 337 337 338 338 339 339 340 341 341 340 340 338 337 337 337 338 338 337 337 336 335 335
341 341 358 358 343 341 342 344 344 341 339 338 338 339 339 340 345 346 348 348 347 348 347 348 346 346 350 352 353 353 352 352 352 351 350 347 343 342 343 343 343 343 343 342 342 341 341 341 340 341 341 342 342 342 342 342 342 341 341 341 341 341 341 340 340 339 338 338 336 336 335 336 337 338 338 338 339 340 339 339 340 341 341 340 340 340 338 337 338 338 340 340 339 340 339 337 336
342 342 351 347 340 341 341 345 344 341 339 339 339 339 339 340 343 345 347 347 347 348 347 347 346 346 350 351 351 350 351 353 353 351 351 349 345 344 344 344 344 344 344 343 342 341 340 339 338 339 340 340 340 340 340 340 341 341 340 341 341 341 340 340 340 340 338 338 337 336 335 336 339 340 340 341 342 342 341 341 342 342 341 340 341 341 339 339 340 341 342 341 343 342 339 339 338
342 346 348 342 341 341 341 346 345 342 341 340 340 340 341 340 342 344 347 347 348 347 346 346 347 348 350 351 351 351 353 354 354 353 353 352 350 348 346 345 345 345 345 344 342 341 339 338 338 338 338 338 337 339 339 339 340 340 339 340 341 340 340 340 341 340 339 339 338 336 335 336 338 341 341 341 341 341 342 343 344 343 341 341 342 343 342 342 342 343 343 344 345 344 342 341 340
341 345 346 342 342 342 342 342 341 343 342 339 340 340 341 341 342 345 346 346 345 344 345 347 348 350 351 351 352 353 355 354 354 354 354 353 352 351 350 349 347 346 345 343 340 337 338 337 337 337 336 336 336 338 339 339 339 339 339 339 340 340 340 341 341 341 341 340 339 338 337 337 338 340 341 341 342 344 346 347 346 345 344 343 343 343 344 342 342 342 343 344 345 345 343 342 340
340 341 344 343 341 340 340 341 341 343 342 339 340 340 342 341 342 344 343 344 343 344 347 349 350 352 352 352 353 353 354 354 354 353 354 353 353 351 351 350 348 346 345 342 338 334 336 337 338 338 337 339 339 340 340 339 339 339 340 339 339 340 340 341 342 342 343 343 342 340 340 339 340 340 340 341 344 347 349 349 347 346 345 343 343 344 343 342 341 341 342 343 343 342 341 339 340
338 339 341 340 338 341 342 341 343 343 342 342 341 343 343 342 343 344 345 347 347 346 348 349 351 352 353 353 353 354 354 354 354 354 354 354 354 351 350 350 347 345 346 345 340 336 337 336 336 336 336 339 341 341 340 339 339 339 340 338 337 338 340 341 342 343 343 344 344 342 342 341 341 342 342 342 344 347 349 348 347 347 345 343 343 344 343 342 341 341 341 341 341 339 338 339 341
335 335 337 338 338 341 341 342 344 343 342 342 343 343 343 343 346 346 348 350 349 348 349 349 351 352 352 353 354 354 354 354 354 354 354 354 354 353 352 352 350 349 348 347 345 343 341 338 335 335 337 341 343 342 341 338 337 339 339 337 336 337 339 340 343 343 342 343 345 344 344 342 342 343 344 343 345 347 347 347 348 348 346 343 343 343 343 342 342 342 342 341 340 340 340 340 342
336 336 337 340 340 340 340 342 344 343 343 342 343 344 345 345 345 346 348 349 348 347 349 350 351 351 352 353 354 354 354 354 353 354 354 353 353 354 354 353 352 353 352 350 349 348 347 344 340 340 342 343 342 343 342 338 336 339 339 338 337 337 339 340 342 342 342 342 343 346 344 342 343 345 345 344 344 344 344 345 346 348 347 345 344 344 344 343 342 343 342 342 342 342 342 341 342
335 337 338 340 340 340 341 342 343 343 343 343 344 345 345 345 345 346 347 349 348 348 349 350 352 353 353 354 354 354 353 353 353 353 352 352 353 354 354 353 352 353 353 352 350 349 347 346 345 344 345 345 343 342 342 339 337 338 338 339 339 337 337 338 338 341 344 344 345 346 344 343 345 346 345 343 341 339 339 341 342 344 345 344 344 345 345 344 344 344 344 345 344 344 344 343 343
335 338 339 339 340 340 341 342 342 344 344 345 345 346 346 346 347 347 348 349 348 348 349 350 352 353 354 355 355 354 354 353 353 352 350 350 352 353 352 352 352 352 353 353 351 348 346 347 347 346 347 348 346 345 344 341 338 337 337 338 339 336 335 337 338 342 345 346 347 347 345 345 347 347 345 342 339 338 337 338 338 340 342 342 344 345 346 346 345 345 345 345 344 344 344 344 344
336 336 337 337 338 340 342 343 343 344 345 345 347 348 348 348 349 349 349 349 348 348 349 350 350 350 353 353 353 354 354 353 352 351 350 350 352 352 352 351 351 352 352 351 350 350 349 350 350 348 348 348 347 346 346 343 341 342 340 339 340 337 338 342 343 345 346 345 347 348 348 347 348 348 346 343 340 339 338 337 339 340 340 342 344 345 346 347 346 346 345 343 343 344 344 343 342
336 336 336 337 339 341 342 342 344 345 345 346 348 348 348 348 351 351 348 349 348 348 348 349 350 349 351 351 351 353 354 353 352 351 350 351 352 351 351 351 350 352 351 349 349 351 351 351 350 349 347 346 345 344 344 344 344 346 346 345 345 343 343 345 345 345 345 344 345 347 348 349 349 349 346 344 341 339 338 339 341 342 343 343 344 346 346 347 346 346 345 344 344 345 344 342 341
335 335 336 336 338 340 342 343 344 345 346 346 348 348 348 348 350 350 349 348 348 348 348 348 348 348 349 349 349 351 352 351 350 350 349 350 350 349 349 349 349 351 351 348 349 350 350 351 350 349 347 345 343 342 341 341 342 346 347 347 348 348 347 346 345 345 344 344 346 347 349 349 349 349 348 346 343 340 340 341 342 342 343 345 347 348 347 348 348 347 345 345 345 345 343 342 341
333 334 336 338 340 340 341 342 343 344 346 346 346 347 348 349 349 349 348 348 348 348 346 346 346 347 347 348 348 349 350 349 348 348 348 348 348 348 348 347 347 351 351 349 349 350 351 352 353 351 348 346 344 342 340 339 342 345 346 346 347 348 348 347 345 345 344 344 346 347 348 349 349 348 348 346 343 341 342 341 339 338 340 344 346 346 346 348 349 348 346 345 343 343 340 340 340
334 335 336 338 337 339 340 340 341 343 344 346 346 345 348 350 348 348 349 348 348 347 347 346 346 346 347 348 347 347 348 347 347 348 349 349 348 349 348 348 349 349 351 351 351 352 352 353 354 353 351 348 347 344 342 341 343 345 345 345 346 347 347 348 346 344 344 344 345 346 348 348 347 345 345 344 343 343 341 339 337 336 340 343 341 339 343 346 347 346 345 342 339 337 334 333 333
337 333 334 337 332 333 339 339 341 342 343 344 345 344 346 350 349 348 350 348 348 347 347 346 347 347 346 347 346 345 346 346 347 348 349 350 350 350 349 349 350 349 351 353 353 351 351 353 353 352 350 348 347 345 344 344 344 344 345 345 345 344 345 347 347 344 344 344 343 344 346 346 344 343 342 342 343 344 343 341 337 335 337 337 333 335 339 339 339 340 339 336 333 331 330 329 329
337 331 330 335 332 332 339 340 341 342 342 342 345 344 345 348 349 348 349 349 348 348 347 347 348 348 347 347 347 344 346 347 346 348 349 349 350 350 350 349 349 350 351 352 352 351 349 349 349 348 347 346 346 346 345 344 344 344 346 347 345 344 344 344 344 344 344 343 342 343 344 344 344 344 344 344 345 346 345 341 336 333 334 333 332 334 335 332 332 333 333 332 330 330 330 329 328
336 335 329 331 332 333 337 339 341 341 341 343 345 345 345 346 348 348 349 348 349 348 348 348 349 349 348 347 347 346 347 348 347 347 348 349 348 348 349 349 349 350 350 351 352 350 347 345 344 344 345 345 345 345 345 344 344 344 346 347 346 344 343 343 342 342 342 343 342 343 344 344 345 346 347 347 347 347 345 339 335 334 334 334 334 333 331 329 330 330 332 332 331 329 329 327 326
332 338 334 330 332 332 333 337 340 340 342 343 345 346 346 345 346 347 348 349 348 348 348 349 350 349 349 349 347 346 347 349 348 348 348 349 349 348 350 351 350 350 350 351 350 349 347 344 343 344 346 346 345 345 344 343 343 343 344 345 345 344 343 343 342 341 343 344 343 344 344 345 346 347 348 348 347 345 340 336 336 336 335 334 334 332 330 328 328 331 333 333 331 330 330 327 325
330 334 333 329 333 333 333 336 340 339 341 344 345 346 347 345 344 345 346 347 347 347 347 349 350 350 350 350 348 348 349 349 349 349 349 349 349 350 350 350 351 350 351 351 351 351 348 344 344 346 346 345 346 346 345 344 343 341 342 343 343 343 342 342 342 342 344 344 345 346 346 347 348 348 347 345 343 340 337 337 336 334 335 337 335 332 331 332 332 334 335 334 332 330 328 329 329
335 336 335 331 331 333 335 337 338 340 342 344 344 345 346 345 345 344 344 346 346 345 348 348 350 350 350 350 348 350 350 350 349 349 349 350 350 350 350 350 350 350 351 351 351 351 346 344 347 349 346 344 345 346 345 343 341 341 342 343 342 342 342 343 345 346 346 347 348 348 348 349 349 347 345 342 339 337 337 336 332 330 335 338 336 334 336 338 338 338 337 335 333 329 326 329 331
338 336 336 333 331 332 337 338 338 339 341 342 344 346 346 346 346 344 343 344 344 343 344 347 349 350 349 350 348 350 352 351 351 349 349 350 349 349 349 350 351 350 351 351 351 350 343 342 348 348 345 345 346 344 341 340 340 342 344 344 345 344 345 347 348 348 348 350 349 349 348 348 347 344 342 340 339 338 336 333 329 328 333 335 336 337 339 340 339 338 337 334 333 330 326 329 332
336 335 333 333 332 333 336 338 338 337 339 341 345 345 346 345 345 344 343 343 342 342 343 345 348 349 348 349 348 349 352 351 350 350 349 349 348 349 349 350 351 351 351 350 351 349 343 343 346 346 344 346 346 343 341 342 343 344 344 345 346 345 345 346 344 342 342 343 344 344 345 345 344 342 341 339 338 337 335 334 332 330 331 334 335 336 338 339 338 336 334 332 334 333 329 330 334
333 333 332 331 333 335 336 338 338 336 338 341 344 345 345 345 345 344 343 343 342 342 343 345 347 347 347 348 348 349 351 351 350 350 349 349 348 349 349 350 351 351 352 351 351 349 344 343 345 347 345 345 345 344 344 345 343 343 343 344 345 343 343 343 339 337 338 339 340 341 340 341 343 343 340 338 337 337 337 336 336 334 332 332 332 332 335 337 337 335 332 332 334 333 331 333 335
329 331 330 329 334 333 331 335 337 336 338 342 344 344 344 346 345 344 343 342 343 344 344 345 346 347 347 347 348 350 351 351 350 349 349 349 349 350 350 350 351 351 352 352 352 350 345 344 346 346 343 341 343 345 346 344 343 344 345 345 343 341 342 342 338 337 337 338 340 341 338 338 343 342 339 337 337 337 336 337 337 336 334 333 333 332 333 335 335 333 332 331 333 333 333 334 333
329 331 329 330 333 333 333 336 336 337 340 341 342 340 341 345 345 345 344 341 343 343 344 345 346 347 348 347 349 351 351 350 350 350 350 350 350 351 351 351 352 352 353 353 352 348 344 345 347 343 338 339 342 345 345 343 343 344 344 344 342 341 341 340 338 338 337 336 337 339 337 337 340 340 337 337 335 331 331 334 335 335 335 336 336 335 334 334 333 333 331 331 334 335 334 333 330
325 328 331 332 334 335 336 335 334 336 336 339 340 336 337 345 344 344 343 342 343 343 343 344 346 347 347 348 349 351 351 351 350 351 350 351 351 351 352 353 353 353 352 353 351 345 343 345 345 339 338 341 341 343 346 343 342 342 342 343 341 340 341 340 339 339 337 336 336 337 336 336 337 336 335 334 330 326 327 332 334 333 334 334 334 334 333 332 332 332 331 332 335 335 333 330 328
322 331 335 332 333 336 336 334 333 331 333 340 339 337 337 340 341 343 342 342 344 343 342 343 345 347 348 349 350 350 350 351 350 351 351 352 353 352 353 353 350 350 351 350 346 344 343 342 340 339 340 339 337 339 344 343 342 341 342 342 340 339 340 340 340 339 338 337 335 335 335 334 334 332 331 329 327 327 329 332 332 330 330 331 329 328 329 330 331 331 331 331 332 332 330 328 326
324 334 336 332 332 335 336 333 331 331 336 339 339 341 339 334 337 343 343 341 344 344 343 344 344 347 349 349 350 349 350 351 351 352 353 353 354 353 353 351 348 349 350 345 342 343 342 337 338 340 338 337 341 341 340 341 341 339 339 340 339 339 339 339 339 339 338 337 336 335 334 332 331 328 326 325 325 327 329 330 329 328 329 329 327 326 327 328 329 329 328 329 328 328 327 326 326
329 333 332 333 331 335 337 333 331 334 335 333 336 341 339 340 348 350 346 341 342 344 344 344 344 346 348 349 350 351 350 351 352 353 353 354 355 352 351 349 349 350 347 342 341 341 338 334 337 339 336 339 344 342 338 337 337 337 338 339 339 338 338 337 337 336 335 334 334 331 327 324 323 323 322 324 325 327 328 329 329 330 330 328 328 327 328 328 328 328 327 327 327 327 327 328 329
330 330 331 331 331 335 336 333 331 332 332 330 333 335 337 344 353 350 347 343 340 343 344 342 344 345 347 349 350 351 351 351 352 351 352 353 354 352 350 350 350 351 345 341 342 341 335 335 338 338 337 342 343 340 336 334 336 338 339 339 337 335 332 330 329 327 325 324 323 320 318 317 317 318 320 322 325 327 328 328 329 330 328 327 328 328 328 328 328 328 327 327 327 328 328 328 330
328 331 330 328 340 346 343 346 340 329 328 331 331 332 333 336 344 345 345 345 342 343 343 342 343 345 346 347 349 351 352 352 352 351 352 352 353 351 351 351 351 349 346 344 343 340 335 336 339 339 339 341 341 338 336 337 340 340 336 333 330 327 325 323 321 319 317 316 315 315 315 316 316 316 317 321 326 329 329 329 329 326 324 325 326 326 327 328 328 327 327 327 327 328 328 327 329
328 332 331 326 339 344 338 341 336 323 326 332 332 334 330 329 339 347 345 345 343 343 344 343 343 344 346 347 347 349 351 352 352 353 352 353 353 352 351 352 351 350 349 346 343 340 336 337 340 341 341 340 340 339 340 342 344 337 328 324 322 321 322 322 318 316 316 317 317 317 318 319 318 318 319 321 326 328 327 327 325 323 323 324 323 324 326 326 326 325 325 325 326 327 327 327 329
327 332 331 324 327 328 325 329 328 325 331 335 332 332 329 329 340 347 345 344 344 342 343 342 342 343 345 346 346 348 351 351 352 353 353 353 353 353 352 351 350 350 350 345 341 340 338 339 340 341 340 340 339 340 342 345 342 330 322 320 320 322 323 323 320 318 318 321 323 323 324 324 323 323 323 323 326 329 329 327 323 321 322 322 322 323 325 325 325 324 324 324 325 326 326 327 329
328 329 328 325 325 321 321 327 326 326 329 332 331 329 328 330 339 347 346 343 343 342 341 342 342 343 344 345 346 347 350 351 352 352 353 353 353 352 351 350 349 350 348 342 340 340 339 340 341 339 338 338 337 339 342 344 338 325 320 321 320 321 323 323 321 318 319 323 325 325 326 326 325 327 327 328 330 332 331 329 323 320 320 320 321 323 324 325 325 324 323 323 324 325 325 326 328
328 333 332 330 331 326 324 328 327 324 326 327 326 327 329 329 338 349 345 340 342 341 341 342 341 343 344 344 344 346 350 351 351 352 353 353 353 351 350 350 350 350 346 340 338 339 339 340 341 339 338 337 336 336 339 341 333 323 320 322 321 320 321 321 319 317 318 321 323 324 325 325 324 325 327 328 328 329 329 327 324 321 320 320 321 322 323 324 324 324 324 325 326 327 326 327 329
327 334 331 327 335 334 327 330 336 332 327 327 328 333 342 343 348 355 346 342 346 341 342 343 341 343 343 343 344 345 349 351 350 351 352 352 352 350 349 350 350 350 347 341 338 338 339 340 341 340 338 336 335 334 335 335 328 322 321 322 321 321 320 318 316 316 317 319 320 322 322 321 320 319 321 323 324 324 325 326 327 326 323 321 322 323 323 325 326 326 327 328 329 330 330 329 330
330 327 326 329 336 335 326 326 334 330 324 331 333 331 338 342 348 356 350 349 349 344 344 342 341 344 342 342 343 344 348 351 350 350 351 351 351 350 349 349 350 352 349 343 338 336 337 340 343 344 342 338 335 334 335 333 327 321 321 322 322 321 319 316 315 316 318 319 320 320 319 318 318 318 320 322 323 323 323 325 328 327 323 321 322 323 324 325 326 328 329 330 330 332 332 332 332
332 322 325 333 330 335 339 330 327 326 324 332 333 325 327 332 341 353 353 350 350 347 346 344 341 343 342 343 343 343 347 349 350 350 349 350 350 350 351 350 350 351 350 344 339 338 338 340 342 344 344 342 339 337 338 336 327 320 322 323 322 321 319 316 316 317 318 319 320 319 320 320 320 321 322 323 323 324 323 324 325 324 322 321 321 323 324 325 327 328 330 331 331 331 332 332 332
331 326 330 333 323 326 335 329 324 326 325 328 331 329 329 331 339 351 351 349 350 348 347 345 343 343 342 344 343 344 345 347 348 350 349 350 351 351 351 351 351 352 351 347 344 343 344 343 344 344 343 343 341 339 340 339 328 320 322 323 323 322 320 317 316 317 318 319 318 319 321 322 323 324 325 325 325 325 324 323 323 322 322 322 321 321 322 323 324 326 328 329 330 330 331 330 331
329 331 329 331 329 326 327 327 328 328 327 330 332 330 334 343 348 351 350 349 349 347 348 347 344 343 342 343 345 344 344 346 347 348 349 350 350 350 350 351 352 352 352 349 348 348 348 347 346 346 345 344 344 343 344 343 331 320 322 323 323 323 321 319 317 317 318 318 318 318 321 324 326 327 328 328 328 328 326 325 324 324 324 322 320 320 320 322 323 324 326 327 329 329 330 329 330
326 328 325 326 328 327 326 329 330 328 330 334 331 327 341 365 360 347 347 348 346 346 347 346 343 342 344 344 344 345 345 345 346 346 347 348 349 350 350 351 352 352 352 351 350 350 350 349 348 348 348 347 347 346 347 346 334 322 322 324 323 323 321 319 318 317 318 318 318 319 322 326 328 329 329 329 329 329 328 328 327 326 324 322 323 323 323 324 325 326 326 327 328 329 329 329 329
327 328 327 325 327 326 322 324 328 328 330 335 332 326 343 368 355 344 347 344 343 344 343 344 343 341 344 345 343 344 344 345 346 346 346 347 348 349 350 353 352 353 353 352 351 351 350 350 349 349 349 348 347 347 348 348 337 323 322 324 323 323 322 320 318 318 317 318 319 321 324 327 329 330 331 330 330 330 330 329 329 328 327 325 326 326 326 326 327 327 327 328 329 329 329 328 329
Wind_Speed
14 13 14 13 11 10 5 3 1 2 2 4 3 3 2 4 5 8 8 8 7 6 16 22 22 20 13 12 14 17 17 6 2 4 7 13 19 19 21 21 22 25 25 26 26 26 26 26 26 26 27 27 26 25 25 25 25 25 24 24 26 26 26 25 24 23 22 21 19 18 17 16 15 15 16 16 17 17 16 15 14 14 14 13 12 12 11 10 10 9 10 9 9 8 8 6 5
16 14 15 13 11 7 2 2 2 2 3 5 3 3 2 4 6 9 8 8 8 11 25 29 27 24 21 21 20 19 18 12 15 20 21 22 23 21 23 22 23 26 26 27 27 27 27 26 26 27 27 27 26 26 25 25 25 25 24 25 26 25 25 24 22 22 21 19 18 17 16 15 15 15 16 16 16 16 16 15 14 13 13 12 12 11 11 10 9 9 9 8 7 7 6 6 6
16 14 15 15 12 5 1 1 2 2 4 5 3 2 4 5 6 11 13 15 18 21 25 25 21 18 20 17 15 15 10 18 30 31 29 26 25 25 24 24 24 26 27 28 27 28 29 28 27 27 27 26 26 26 26 24 24 25 24 25 25 24 23 22 21 21 20 19 18 17 17 17 16 16 16 16 16 16 15 14 13 12 12 12 12 12 11 10 9 7 7 6 5 5 5 5 6
16 13 12 12 10 3 1 2 1 3 5 3 3 3 5 6 8 13 19 23 22 23 22 18 13 11 23 19 14 17 12 20 30 31 30 27 26 27 27 26 26 26 28 28 27 28 28 28 27 28 27 26 25 24 25 23 23 24 23 23 25 23 22 21 20 20 20 20 19 18 18 18 17 17 16 16 16 15 14 13 13 12 13 12 12 11 10 8 7 5 4 4 4 4 4 5 5
15 13 11 9 5 1 1 2 1 4 4 3 3 4 5 8 11 12 18 24 23 23 21 17 12 15 26 17 8 13 16 22 27 29 30 28 27 27 28 28 27 28 28 27 27 27 27 28 27 27 26 25 25 24 23 22 22 22 22 23 23 23 22 21 20 20 20 20 20 19 18 18 17 17 16 16 15 15 14 14 13 13 12 11 10 9 8 6 5 4 2 3 3 3 4 4 5
15 14 12 9 3 1 1 1 4 4 3 5 4 5 9 11 13 16 20 25 25 24 22 20 17 18 19 13 14 19 22 25 25 28 30 30 28 27 28 28 29 29 28 27 27 27 27 27 26 25 25 24 23 23 23 22 22 21 21 22 22 21 20 20 20 20 20 19 19 18 18 18 17 17 16 16 15 15 14 14 13 12 11 10 8 7 6 5 3 2 2 3 3 3 3 4 5
12 13 12 8 5 2 1 2 5 4 4 7 7 8 11 13 19 21 20 21 23 23 24 23 24 22 13 12 18 15 16 23 28 29 30 30 28 26 27 28 29 30 29 28 27 27 27 26 26 25 24 24 23 22 22 21 21 20 20 20 20 19 19 18 19 19 18 18 18 18 17 17 16 16 16 16 15 14 14 13 12 11 9 7 6 5 4 4 2 1 1 2 3 3 3 4 4
10 11 11 6 1 0 2 3 4 3 5 8 11 13 14 17 21 17 13 16 15 17 22 22 26 21 9 12 13 10 16 23 29 29 30 30 28 27 26 29 30 30 30 28 28 27 26 26 25 24 24 23 23 22 21 20 20 20 19 19 18 18 18 17 17 17 17 17 17 17 16 15 15 14 14 15 14 14 13 12 11 9 8 6 5 4 4 3 1 1 1 1 2 3 3 3 3
13 11 8 4 2 2 3 4 5 5 5 8 10 14 19 21 22 17 13 15 15 18 20 18 22 20 11 16 16 14 19 24 28 29 29 28 28 27 27 29 29 30 29 28 28 27 26 25 25 24 24 23 22 21 20 20 19 19 18 18 18 17 17 17 17 17 17 17 16 16 15 14 14 14 14 14 14 13 12 11 10 8 7 6 5 4 3 2 1 0 1 1 2 2 3 4 3
13 11 5 2 3 4 4 3 3 4 5 7 9 15 19 21 23 21 16 15 19 19 18 19 21 24 19 17 15 17 22 26 29 27 26 27 27 28 28 27 28 29 29 27 27 27 26 25 25 24 23 23 21 21 20 19 18 18 17 17 17 17 16 17 17 17 17 17 16 16 15 15 14 14 14 14 13 12 11 10 9 7 6 5 5 4 3 2 0 1 1 2 2 3 4 4 4
6 7 3 3 3 4 3 3 5 5 7 9 12 19 23 25 23 21 20 18 23 23 22 22 20 26 22 15 15 20 27 27 28 28 26 25 26 27 27 26 26 27 27 27 27 25 26 25 24 23 22 21 20 20 19 18 18 17 17 16 17 16 16 16 16 16 16 16 16 16 15 15 14 14 14 13 12 11 10 9 7 6 6 5 5 4 2 1 1 2 3 3 3 4 4 4 4
3 1 1 4 2 3 4 4 7 7 10 10 10 19 28 31 23 18 20 19 24 24 18 16 16 24 17 11 17 23 28 27 26 27 25 24 25 25 25 26 25 25 25 26 26 24 24 24 23 22 21 20 19 19 19 18 17 16 16 16 16 15 16 15 15 15 15 15 15 15 14 14 13 13 12 12 11 10 9 8 7 6 5 5 4 4 2 1 2 3 4 5 5 5 5 5 6
4 2 4 3 0 3 4 4 6 6 7 8 9 20 30 28 22 21 23 22 22 17 15 20 23 20 13 13 21 26 28 26 26 25 25 24 24 24 24 25 25 25 25 24 24 24 23 23 22 21 20 19 19 18 18 17 16 16 16 15 15 15 15 15 15 15 14 14 14 13 13 12 12 11 11 10 10 9 8 7 6 5 4 3 3 3 2 1 2 3 5 6 6 7 6 6 6
6 4 4 1 0 1 4 4 4 5 4 7 13 22 26 23 26 28 26 19 15 20 23 28 29 19 16 18 19 26 27 26 26 24 24 24 23 24 24 24 24 24 24 24 24 23 23 22 21 21 20 18 18 17 16 16 15 15 15 15 14 14 14 14 14 13 13 13 12 12 11 11 10 9 9 8 8 7 6 6 5 4 4 3 3 2 1 2 3 4 5 6 7 7 7 7 6
7 5 5 2 1 2 1 3 4 7 5 6 14 20 20 23 29 28 26 18 15 30 29 26 26 17 17 17 19 29 29 27 27 24 24 22 22 23 23 24 24 23 23 23 23 23 23 22 21 20 19 18 17 16 16 16 15 15 14 14 14 13 13 13 13 12 11 11 10 10 9 9 8 8 7 6 5 4 4 4 4 5 4 3 3 2 1 2 3 4 5 6 6 6 7 7 7
8 3 5 2 2 1 1 3 5 6 5 7 17 23 18 21 28 23 25 25 23 30 27 24 18 14 23 22 26 34 31 30 27 25 25 22 23 22 23 24 23 23 22 22 21 21 21 20 20 20 19 17 16 16 16 16 15 15 14 14 13 13 12 12 12 11 10 9 8 8 7 7 6 6 5 4 3 2 3 4 4 4 3 2 3 2 2 2 3 4 6 6 6 6 6 7 8
8 4 3 2 4 3 3 4 4 5 6 10 21 26 16 14 22 23 27 32 30 25 23 23 15 19 30 26 31 36 32 31 28 27 27 24 25 24 24 23 23 22 21 21 20 20 20 20 20 19 18 17 15 15 15 15 15 15 14 14 14 12 11 11 11 11 10 9 8 6 5 5 5 5 5 4 3 3 3 4 5 5 4 4 4 4 4 3 3 4 5 5 5 5 6 7 8
8 4 2 2 4 4 4 5 7 7 7 11 19 25 19 11 17 25 25 26 28 22 20 22 18 22 28 28 34 34 32 32 29 29 28 27 26 25 25 24 23 23 22 21 19 20 20 19 19 18 18 16 16 15 15 15 15 15 14 14 13 13 11 10 10 9 9 9 7 6 6 6 5 5 4 3 4 3 2 3 4 5 5 6 7 6 5 4 5 5 5 5 4 5 6 7 8
9 4 4 4 4 6 8 8 9 10 12 14 18 24 22 17 22 25 18 19 24 20 17 23 26 27 30 34 34 32 34 32 31 31 29 29 28 27 26 25 24 23 22 22 20 19 18 18 17 17 17 16 15 15 15 15 15 15 14 14 13 12 11 9 8 8 8 8 7 7 7 7 6 5 4 4 3 1 1 2 4 5 7 9 8 6 5 5 5 6 6 6 5 5 6 7 8
9 6 4 6 6 6 10 13 14 16 18 16 16 20 22 22 26 22 17 19 22 18 20 25 28 33 36 36 36 35 35 32 31 30 28 29 27 26 25 26 25 23 23 22 21 19 17 17 16 16 15 15 15 14 14 14 14 14 14 14 13 12 11 10 8 7 7 7 8 7 7 7 7 6 5 4 2 1 1 2 4 4 7 9 8 7 6 5 5 6 7 7 7 7 7 7 8
7 8 4 7 11 7 12 18 18 20 22 19 16 17 18 20 22 23 25 17 11 19 31 35 34 38 41 38 37 36 35 33 31 28 27 27 26 24 23 24 24 22 21 20 20 19 18 16 15 16 15 14 14 13 13 13 13 14 14 13 12 11 11 10 8 7 7 7 8 7 7 7 7 7 5 2 1 2 2 3 3 5 8 10 8 7 7 6 5 5 6 7 7 7 8 7 7
4 8 12 14 15 9 15 24 23 24 25 21 16 12 12 17 20 30 31 15 10 23 35 41 41 43 43 42 38 36 35 33 31 29 27 26 24 23 21 22 22 21 20 20 21 19 18 17 16 16 15 15 13 12 12 12 13 14 14 12 12 12 11 9 8 8 7 7 7 7 8 7 7 6 3 1 3 4 4 4 5 6 8 10 10 7 6 6 6 5 7 7 8 8 8 8 6
2 9 18 19 18 12 17 28 27 26 23 16 13 13 18 18 17 27 30 20 22 31 38 41 41 43 43 42 40 37 36 33 32 30 27 25 24 23 21 21 21 21 20 20 20 19 18 17 16 16 16 16 13 13 13 12 12 13 13 11 12 12 11 10 8 8 8 8 8 8 9 7 6 5 2 3 5 5 6 6 6 7 8 10 10 7 5 6 6 6 7 8 8 9 10 9 8
3 10 16 20 22 17 20 27 27 26 23 19 19 18 17 14 10 18 25 26 31 35 38 41 39 40 39 38 38 37 35 33 32 29 26 25 24 23 22 21 19 18 19 19 18 20 19 18 18 16 16 16 14 14 13 12 11 12 13 12 11 11 11 9 8 8 7 7 7 8 9 7 5 4 2 4 5 5 7 7 7 7 8 10 10 8 6 6 7 7 8 8 8 10 11 11 11
4 12 16 18 19 20 25 29 29 29 25 24 23 16 12 14 15 18 24 30 35 37 37 40 39 38 36 36 35 34 34 31 31 29 25 24 24 23 22 21 19 17 19 19 19 20 19 18 18 17 17 16 14 13 12 10 11 11 12 12 11 11 11 9 7 6 6 7 7 9 10 8 6 4 2 3 5 6 7 8 8 8 10 11 11 11 9 8 8 9 9 7 8 11 12 13 13
9 15 18 17 18 24 31 31 30 28 24 26 20 13 14 22 22 17 26 35 35 37 37 38 39 35 34 35 33 33 33 31 30 28 26 26 25 25 23 21 20 19 18 17 19 20 19 18 17 17 16 15 14 12 11 10 10 10 10 10 10 10 9 7 6 7 7 8 9 10 11 9 7 5 4 4 6 8 8 9 9 10 11 12 13 13 13 11 11 12 11 9 10 13 14 15 15
15 21 20 21 25 27 31 28 28 26 22 28 19 9 13 21 18 10 23 37 36 36 36 37 37 34 34 35 33 33 33 31 29 28 28 29 28 27 25 23 22 21 19 18 20 20 19 19 18 17 16 15 14 13 11 10 10 9 9 9 8 8 7 7 7 8 9 9 9 11 11 9 8 7 6 6 8 9 10 10 11 11 12 13 14 14 15 15 14 15 14 13 14 15 15 16 17
21 25 17 17 24 25 31 26 26 24 16 28 24 10 11 15 13 12 25 36 36 37 33 34 35 32 33 33 32 34 33 31 29 29 31 32 30 28 26 25 24 22 20 20 20 19 19 18 17 17 16 15 15 13 11 10 9 9 9 8 7 7 8 9 9 9 10 10 10 10 10 8 8 8 7 8 10 10 10 11 11 12 13 13 14 14 14 15 16 17 17 17 16 16 15 16 16
23 24 14 13 16 15 24 23 26 23 14 28 27 10 7 8 11 21 31 34 35 36 33 32 32 29 31 32 32 33 33 30 29 30 30 31 29 26 25 25 25 23 21 19 18 17 17 16 16 16 16 16 14 13 11 10 10 9 9 9 9 9 9 10 10 9 10 10 11 10 10 8 8 8 9 10 11 11 11 12 13 13 14 14 13 13 13 13 13 15 16 16 15 14 15 16 16
18 16 11 11 9 6 14 18 24 20 19 33 23 5 3 4 14 26 31 33 33 32 31 31 29 29 32 34 33 31 30 29 28 29 27 27 28 25 23 23 24 23 22 20 18 16 16 16 15 15 15 16 14 13 12 11 11 11 11 11 11 11 11 10 10 10 11 12 12 12 10 10 9 10 11 11 11 11 11 12 13 14 13 13 12 11 11 10 9 10 10 11 11 14 16 17 17
10 8 8 7 6 5 9 15 19 14 19 32 16 3 7 5 15 27 29 32 32 28 29 29 28 30 33 34 32 28 28 28 27 28 27 25 26 24 22 22 23 23 22 22 19 17 17 16 16 16 14 14 15 13 12 11 11 11 10 11 11 12 12 11 11 11 12 13 13 12 11 11 11 12 12 12 11 11 11 13 14 13 13 13 12 11 9 8 8 8 9 10 12 14 15 16 16
4 6 6 3 6 7 8 13 19 14 16 23 12 4 7 7 15 26 28 29 28 25 26 26 27 31 33 33 31 27 28 29 27 27 27 26 26 24 22 22 23 23 22 22 20 18 17 16 15 15 14 13 14 13 12 12 11 11 10 10 10 11 12 12 12 12 13 13 13 12 12 13 13 13 13 12 12 11 11 13 14 13 12 12 11 9 8 9 9 9 9 10 12 13 13 14 14
1 4 4 4 9 7 6 9 17 21 16 12 10 6 6 6 16 26 27 28 26 23 23 24 27 31 32 32 30 28 29 31 30 27 27 27 25 25 23 22 23 22 21 21 21 19 17 16 14 14 14 12 12 11 11 12 12 12 11 10 11 11 11 12 12 12 13 13 13 13 14 14 14 14 14 13 11 11 11 12 11 10 10 9 7 7 7 9 10 9 9 10 12 13 13 14 14
1 2 3 6 10 9 7 7 12 21 17 9 9 9 8 9 17 26 28 28 26 23 22 23 26 30 31 32 30 29 30 33 32 29 28 28 26 25 24 23 22 22 21 20 20 19 16 15 14 13 13 11 10 11 11 11 11 11 11 11 11 11 11 12 12 12 12 13 13 14 15 15 16 15 15 13 9 9 11 9 8 8 7 6 5 6 7 8 9 9 9 10 11 13 14 14 14
5 4 4 4 8 10 11 10 12 16 15 10 10 9 10 12 17 24 29 30 27 25 24 24 27 30 31 32 30 29 30 32 32 30 28 28 26 24 23 22 22 22 22 21 19 17 15 16 15 14 13 11 10 11 11 10 10 10 10 11 11 11 11 11 12 12 13 14 14 15 16 17 18 15 11 8 7 8 9 7 6 8 8 6 5 7 8 9 9 9 9 9 10 12 13 13 13
8 8 7 6 7 7 9 11 14 16 13 10 12 11 12 14 15 20 27 31 29 27 26 26 28 31 32 31 30 30 29 29 29 28 28 28 25 23 23 23 22 22 22 22 20 17 15 17 17 15 13 12 11 11 11 11 11 11 11 11 10 10 9 10 11 12 13 14 15 16 16 16 15 9 5 5 7 8 7 6 7 9 8 7 7 9 9 8 7 8 9 9 10 12 12 12 13
8 8 7 7 8 7 8 10 13 15 11 9 13 14 15 17 15 18 27 30 26 25 25 25 28 30 32 31 31 31 30 28 28 28 29 27 24 22 23 24 23 23 23 23 21 18 16 17 18 15 13 13 12 12 11 10 9 9 10 10 9 8 8 8 8 8 9 10 11 10 9 8 7 5 5 7 7 7 7 7 8 8 8 8 8 10 11 8 7 8 10 10 11 13 12 11 13
8 7 6 7 8 7 8 10 12 12 9 7 11 14 15 16 15 17 24 23 21 26 25 26 29 30 31 31 31 32 31 29 28 29 30 27 24 24 24 25 25 25 25 24 22 19 18 17 17 15 13 14 14 12 11 9 7 6 6 6 6 6 6 6 5 4 4 4 4 4 4 4 4 5 7 7 7 8 9 10 10 10 9 9 9 10 11 9 9 10 11 10 11 13 14 12 13
7 5 4 6 5 4 5 7 11 9 7 7 11 13 12 14 15 16 21 21 22 31 32 31 33 31 31 33 32 32 31 30 29 31 31 28 27 26 26 26 26 26 25 24 22 19 19 19 17 16 15 16 15 13 11 8 6 5 5 6 6 6 5 5 5 5 6 6 5 6 6 5 5 7 9 9 10 10 10 10 10 10 10 11 11 11 11 10 10 11 11 12 11 13 14 12 11
5 5 4 4 3 4 4 6 11 7 6 11 12 9 8 10 11 12 20 26 25 31 35 36 38 36 36 37 36 35 33 33 33 34 33 30 29 28 28 27 27 27 26 25 23 21 21 21 19 19 18 16 14 13 10 8 8 7 7 8 8 7 7 7 7 7 8 8 8 8 8 8 9 10 10 9 9 9 9 8 8 9 9 9 8 9 10 10 10 11 11 11 12 12 13 10 7
5 7 6 4 5 8 7 6 9 4 5 13 11 5 4 8 10 9 14 20 20 26 31 31 35 39 39 38 38 38 36 36 37 37 35 32 31 30 29 28 28 28 28 26 25 23 23 23 22 21 19 16 14 12 11 11 11 11 10 11 11 10 10 9 9 10 9 8 8 10 10 10 11 10 9 7 8 9 8 6 6 6 5 5 5 5 7 8 10 10 9 9 9 9 9 8 6
5 7 8 8 9 11 8 8 9 5 3 10 12 6 4 6 9 11 10 11 14 20 23 25 30 34 35 36 38 39 38 38 39 38 37 35 32 30 30 30 29 29 28 27 25 24 23 24 23 21 18 16 14 13 15 14 13 13 13 13 13 12 11 11 10 10 9 7 7 7 6 6 7 8 7 8 9 8 6 4 4 4 4 4 4 5 6 8 8 9 8 6 6 5 6 7 6
6 6 9 10 10 11 11 12 9 5 5 11 12 8 4 4 8 12 11 9 12 16 17 21 29 31 33 36 38 39 39 39 40 39 38 36 33 31 31 31 31 30 28 27 26 25 24 24 23 21 19 16 15 15 17 16 15 14 14 13 13 12 11 11 10 10 9 7 7 6 5 5 6 7 8 9 8 7 5 5 5 5 5 5 6 6 7 7 7 7 7 6 5 5 5 6 7
6 7 8 9 8 12 15 15 10 5 5 8 6 4 5 6 9 9 11 10 11 13 14 18 27 31 34 37 38 41 42 41 41 40 39 37 35 33 33 32 32 30 28 28 28 27 25 24 23 21 20 18 17 17 17 17 16 14 14 14 13 13 12 12 11 11 11 11 11 12 11 11 11 12 12 11 9 7 6 5 6 6 6 7 7 6 7 6 6 6 6 5 4 4 5 5 6
8 8 7 8 7 10 15 15 10 5 7 6 6 2 5 4 5 5 9 11 11 14 16 17 24 32 34 36 39 42 44 44 43 42 41 39 38 35 34 33 32 30 29 29 28 27 25 24 23 22 21 20 20 20 19 17 15 14 14 14 14 13 14 14 14 14 15 16 16 17 16 15 14 13 14 11 8 6 6 6 5 4 5 6 6 5 5 5 5 4 4 4 3 3 3 3 5
9 8 7 6 3 6 11 11 8 6 7 9 10 6 4 3 4 4 7 10 12 13 14 16 23 33 36 37 40 42 44 45 43 42 41 40 39 36 34 33 32 30 29 29 28 27 26 25 24 23 23 22 22 22 19 16 15 15 15 15 15 15 16 16 16 16 16 16 16 15 14 12 11 10 12 10 8 8 8 7 5 4 5 6 6 5 4 3 2 3 3 3 3 3 3 3 5
7 4 6 5 2 4 4 2 4 6 4 8 12 12 7 3 4 6 8 12 17 15 11 14 21 31 36 38 40 41 43 44 44 43 42 41 40 37 35 35 32 30 29 29 28 28 27 27 26 25 25 24 23 22 19 17 16 16 16 15 16 16 16 15 15 14 13 12 12 11 10 9 8 8 9 9 9 10 10 8 5 5 6 6 5 4 2 2 2 3 3 4 3 3 4 4 5
6 2 3 3 3 3 3 4 3 4 5 6 12 14 9 5 5 7 12 17 19 16 14 15 19 28 36 38 39 41 43 43 44 44 43 42 41 39 37 36 34 32 31 31 31 30 29 29 28 27 26 24 23 21 20 19 18 17 15 14 14 15 14 14 13 12 11 11 10 9 9 8 8 7 8 8 9 10 9 7 6 5 6 5 4 3 1 0 1 2 2 3 3 4 5 5 5
6 3 3 3 3 1 1 1 1 4 5 5 11 14 9 7 7 11 18 19 16 16 19 22 25 31 36 38 39 41 43 44 45 45 44 44 44 42 41 39 36 34 34 34 34 33 32 31 29 28 27 25 24 23 22 21 20 17 14 13 13 13 13 11 10 10 10 10 9 9 9 9 9 9 8 8 9 9 8 8 7 6 5 4 3 2 1 1 1 1 1 2 2 3 4 4 3
6 5 4 5 3 2 2 3 1 2 4 6 8 11 6 5 6 11 19 22 23 24 24 28 33 36 39 39 40 40 42 45 45 44 45 45 45 45 43 41 38 37 37 37 37 36 34 33 31 30 28 26 24 23 23 22 21 17 15 13 11 10 10 9 9 10 10 11 11 11 11 11 11 11 10 9 10 10 10 10 9 6 4 3 2 2 2 2 2 2 1 1 2 4 5 4 4
6 5 6 5 5 4 3 3 3 4 5 6 4 5 5 5 6 10 17 23 27 26 25 28 32 35 39 40 38 39 41 43 44 44 45 46 47 46 45 43 41 39 39 40 40 38 37 35 33 32 30 27 26 25 24 23 21 18 15 13 10 8 8 9 10 10 10 10 10 10 11 11 11 11 11 12 11 10 11 11 9 6 5 4 3 3 4 4 4 3 3 4 4 5 6 6 5
5 4 6 4 6 5 3 4 6 5 3 4 4 3 4 5 4 3 7 10 13 19 22 23 24 28 34 36 35 38 40 42 43 44 45 47 47 47 48 46 43 42 41 43 43 41 40 38 36 35 32 29 27 26 25 24 22 20 17 13 10 9 9 9 9 9 9 9 9 8 9 9 9 9 10 10 10 9 9 9 8 8 7 5 4 4 5 5 5 5 5 6 7 7 8 8 8
3 4 5 5 6 8 3 4 2 3 2 4 3 2 3 1 5 5 5 7 9 14 17 19 22 26 30 33 36 38 41 43 44 46 47 48 48 49 49 48 46 44 44 44 45 43 42 40 39 37 35 32 29 27 26 25 24 22 18 14 11 10 9 8 8 8 8 9 8 8 8 8 7 7 7 7 7 7 7 7 9 11 10 7 6 6 6 5 5 6 7 9 10 10 11 11 11
5 6 8 3 2 4 4 2 2 3 1 4 3 3 2 1 3 4 4 8 10 12 13 15 20 24 27 32 37 40 43 45 46 47 48 48 49 50 50 50 48 47 46 46 46 45 43 41 40 39 37 35 33 30 29 28 26 24 20 15 12 10 8 8 8 8 8 8 8 7 7 7 6 6 5 5 6 6 7 8 10 11 10 9 8 8 8 7 7 8 9 10 11 11 12 12 12
6 5 6 5 3 1 1 3 2 1 1 3 4 5 3 4 4 4 6 9 11 11 11 13 15 20 25 30 34 39 43 44 45 46 47 48 50 51 51 51 50 48 47 47 46 46 44 43 41 40 38 36 34 33 32 30 28 25 21 16 12 10 9 9 8 9 9 8 7 6 6 6 5 4 3 4 7 8 8 9 10 11 11 10 9 9 9 9 10 10 10 11 12 12 14 14 14
3 3 3 3 4 5 3 3 4 4 3 3 4 5 4 5 6 9 11 12 12 12 12 12 15 21 28 30 33 37 41 43 44 45 47 49 51 51 51 51 51 50 49 48 48 47 46 45 43 42 40 38 36 35 34 33 29 26 22 18 14 12 10 9 9 9 9 7 5 5 5 5 5 4 3 4 6 7 7 7 8 10 11 10 10 10 10 10 10 10 10 11 12 13 14 15 15
4 4 4 3 0 2 3 2 3 5 4 4 3 4 5 5 5 10 14 13 13 16 15 13 16 24 30 34 36 37 40 44 45 46 48 50 51 52 52 52 52 51 50 50 50 49 48 47 46 45 43 41 39 38 36 34 31 27 24 20 16 13 11 10 10 10 9 7 5 5 5 6 5 4 4 5 6 6 6 7 8 8 9 9 9 10 9 8 9 10 11 12 12 14 15 16 16
7 5 6 6 3 4 4 3 2 2 5 5 5 4 7 6 4 9 14 13 12 16 16 12 17 27 32 35 37 36 37 41 44 46 48 50 51 51 51 51 50 51 51 51 52 51 50 50 49 48 46 44 42 39 38 36 32 29 26 21 16 13 12 11 10 10 10 8 7 6 7 6 5 5 6 7 8 8 8 8 7 8 9 9 10 10 8 8 10 11 12 12 13 15 18 19 19
Wind_Direction
157 155 161 170 182 177 184 217 111 12 72 79 70 82 77 94 102 99 89 83 69 56 91 102 110 110 110 110 119 87 48 31 123 104 126 145 146 135 130 134 135 132 130 127 125 125 126 125 125 124 122 121 122 123 122 122 122 124 126 127 130 131 133 133 133 134 135 136 135 132 128 126 124 126 126 127 128 128 128 125 121 115 112 111 110 108 103 100 100 99 98 93 87 81 78 72 59
152 155 158 165 181 170 178 212 78 13 57 76 90 102 123 106 100 99 92 85 88 94 96 100 101 99 104 107 106 86 42 47 104 112 123 140 138 130 130 134 135 132 130 127 127 128 127 126 126 124 122 122 124 124 123 122 124 126 128 127 128 130 131 130 131 132 134 135 134 132 130 129 128 127 128 129 130 131 130 125 122 120 118 116 115 113 110 109 107 103 100 93 85 77 70 63 58
159 160 161 162 167 154 146 117 75 67 73 92 95 100 121 107 98 100 105 102 103 103 99 98 94 97 103 90 81 89 69 90 112 119 128 140 137 134 134 134 134 131 129 128 130 130 127 127 127 125 124 124 125 125 124 125 126 127 128 127 125 127 128 129 132 132 132 132 132 133 131 130 129 128 129 130 132 133 131 126 125 126 124 121 120 119 117 115 109 104 96 89 79 70 67 62 57
172 167 164 159 152 152 79 82 138 117 95 111 95 104 110 103 101 104 114 111 106 100 99 97 78 94 104 96 89 92 96 111 122 127 133 141 136 136 136 135 135 131 130 129 131 130 128 128 128 128 126 128 127 124 125 125 125 125 125 125 125 126 128 129 130 131 130 132 133 132 130 129 129 128 127 128 131 133 132 131 130 129 128 126 124 121 116 110 104 96 83 71 61 59 65 64 55
176 179 175 163 130 100 133 94 162 115 119 150 106 105 99 97 98 101 111 108 104 97 99 100 81 93 98 98 107 103 119 127 130 132 135 139 134 135 136 138 137 133 132 131 132 130 129 130 130 130 128 129 127 126 126 125 125 126 126 127 127 127 128 129 130 132 133 135 133 130 128 127 127 126 126 128 131 133 134 133 132 131 129 126 122 116 107 99 95 85 59 35 38 51 54 50 42
171 177 179 193 254 302 159 81 93 97 142 139 110 112 103 99 98 96 95 95 97 98 100 100 101 98 81 78 107 120 132 133 137 136 135 137 136 135 136 139 138 136 134 134 134 132 131 131 132 131 128 129 129 128 128 127 128 128 129 129 128 128 128 131 133 135 138 137 133 131 129 128 127 126 128 129 130 131 132 131 129 127 124 120 116 110 99 93 88 74 31 11 24 38 32 27 24
161 164 171 201 260 264 121 121 110 104 126 115 116 117 107 104 105 101 94 93 94 99 101 101 106 99 80 97 105 116 137 137 139 137 135 135 136 137 138 140 139 138 137 138 137 134 133 132 133 131 131 132 132 131 130 129 129 129 129 128 127 127 128 131 133 136 138 137 135 134 132 131 129 128 127 127 128 127 127 127 125 124 122 120 116 110 103 97 85 52 15 9 13 13 8 13 13
165 173 176 182 310 70 116 115 107 109 115 112 123 123 121 118 110 104 98 99 98 103 106 111 111 95 90 115 101 120 141 140 138 137 135 135 138 141 143 142 140 139 140 142 139 137 135 134 134 134 135 134 134 134 132 130 129 129 130 130 129 129 130 132 133 135 135 137 137 135 134 133 131 128 126 126 127 127 128 129 130 131 131 129 127 121 114 105 90 41 9 16 358 348 350 3 3
183 196 195 178 59 72 96 82 91 112 120 116 124 126 123 119 110 105 99 96 101 102 105 124 117 99 106 105 102 131 142 142 137 136 137 138 143 144 146 145 142 141 142 144 141 140 138 138 138 138 138 137 136 135 134 132 132 132 132 132 132 132 134 135 136 136 136 136 136 134 134 133 132 129 128 129 129 130 132 134 135 136 136 132 132 128 123 121 116 339 334 344 343 334 338 349 354
188 202 208 135 68 71 74 42 86 107 112 108 111 117 116 114 110 107 105 102 102 95 102 120 109 108 119 105 108 141 145 142 138 139 142 143 146 146 148 148 144 142 145 146 144 143 142 143 142 142 141 139 139 137 137 137 137 136 134 133 133 134 135 137 137 137 137 136 135 135 135 134 132 131 132 133 133 134 135 137 137 136 137 134 135 137 138 141 163 296 304 311 317 315 323 327 334
197 215 232 82 73 84 103 72 85 92 100 98 100 110 114 114 108 104 105 101 101 102 111 108 99 112 115 103 118 146 147 142 141 142 146 148 148 148 148 147 146 145 146 146 145 145 145 146 146 145 144 142 142 142 143 143 142 138 134 132 133 136 137 138 137 138 139 137 137 136 137 137 136 136 136 137 137 138 139 141 140 140 141 141 144 146 149 155 291 295 292 293 295 291 291 292 297
232 240 72 80 79 115 133 105 102 104 103 103 105 113 117 115 109 111 110 110 114 117 125 115 119 123 109 105 131 149 150 146 145 144 148 149 148 149 148 147 148 147 147 147 146 148 148 148 148 147 147 147 147 147 148 146 144 139 135 134 135 138 139 140 141 142 143 141 141 141 142 142 141 140 140 143 145 146 147 148 149 150 150 148 150 153 166 205 290 299 299 297 297 291 282 278 283
226 140 90 79 170 143 127 116 120 115 111 118 129 125 122 118 120 127 122 127 130 126 131 129 135 127 109 125 139 150 152 152 150 147 150 148 148 149 148 147 148 149 149 149 149 150 150 150 150 150 151 151 151 150 150 147 145 142 140 140 140 141 141 143 145 147 149 147 147 148 148 147 146 146 146 149 152 155 155 157 160 159 161 166 173 175 190 253 305 315 311 304 302 296 292 289 283
214 153 114 97 306 142 119 118 121 104 120 137 138 135 126 125 131 133 132 132 132 135 134 136 137 121 119 132 143 156 156 158 155 151 152 148 150 148 147 147 148 151 150 151 152 152 152 153 153 153 155 154 154 153 153 151 148 147 146 146 145 146 146 146 148 151 153 150 150 152 151 150 150 151 152 156 160 163 160 162 170 177 189 202 211 220 259 316 330 327 320 315 309 307 312 312 297
210 152 102 103 31 17 87 117 129 110 132 155 143 136 123 129 137 136 138 133 130 140 137 140 140 126 145 152 156 164 161 159 156 153 153 150 151 147 146 147 148 151 150 152 153 153 152 153 155 154 157 158 157 157 155 155 153 151 149 150 151 151 151 152 154 155 155 152 152 153 152 152 155 158 162 166 167 169 175 182 195 199 202 218 234 250 323 342 335 330 331 329 320 320 332 341 333
212 178 75 111 145 69 250 151 133 119 141 145 129 126 114 129 139 139 142 135 134 144 142 149 156 146 157 160 157 162 161 158 156 153 152 151 152 148 147 147 148 150 151 154 154 153 153 153 155 154 158 159 158 157 156 158 157 155 152 153 154 154 156 157 160 161 162 162 159 153 153 160 164 171 178 181 183 205 214 215 228 237 250 273 280 295 328 331 323 326 335 337 331 331 339 352 352
206 189 67 137 168 165 211 170 139 131 141 120 118 122 115 130 137 137 140 136 138 148 147 151 159 148 151 155 153 156 157 156 155 152 152 152 154 151 151 151 152 154 156 158 158 156 155 156 156 155 158 158 159 160 160 162 161 161 158 159 161 162 163 163 165 167 171 171 165 160 165 177 179 183 189 194 204 224 233 228 236 258 286 309 323 336 342 334 324 328 335 338 339 342 344 348 349
186 152 129 177 178 182 186 174 161 136 125 115 121 127 126 134 135 134 135 134 137 138 139 139 135 141 150 152 149 150 153 156 156 155 153 153 156 155 154 157 158 159 160 162 164 161 160 160 158 158 161 162 165 165 167 167 167 167 165 167 170 171 170 170 172 172 177 176 174 174 179 194 196 195 202 211 219 236 255 252 265 282 305 325 330 338 345 340 333 329 331 334 335 338 343 342 337
182 130 135 202 200 183 172 164 158 134 126 127 130 133 132 140 141 139 136 132 132 124 127 130 123 133 146 149 149 151 155 158 159 158 156 156 158 158 157 160 162 162 163 164 164 164 165 163 163 165 165 166 168 168 170 172 173 173 171 174 179 180 179 180 180 181 185 182 185 187 187 203 205 202 214 228 228 253 306 308 316 309 320 331 329 334 345 343 336 327 325 328 329 329 335 338 330
197 164 140 202 185 167 168 154 148 140 132 129 135 138 136 147 152 146 132 128 133 133 137 132 126 135 145 151 153 154 158 161 162 161 159 160 161 162 161 162 164 164 164 163 160 164 169 166 166 168 166 165 167 169 171 173 176 176 175 179 185 185 187 190 190 192 196 193 195 195 195 207 210 208 219 230 216 89 8 343 336 325 338 343 336 338 349 352 346 330 325 327 329 328 333 343 339
202 181 156 178 160 149 168 151 139 136 128 126 135 135 141 155 153 137 127 126 141 147 146 143 141 144 148 153 154 156 161 163 164 164 163 165 166 166 166 164 164 163 162 162 161 164 169 168 166 167 168 167 171 175 174 173 177 179 179 183 189 189 190 195 198 196 203 204 201 203 207 216 217 216 221 239 326 42 10 349 345 346 357 358 351 344 344 349 349 338 334 332 329 329 337 347 346
215 161 140 149 154 154 161 139 125 127 122 122 125 123 145 146 133 134 136 138 160 154 149 148 149 151 153 154 155 158 160 163 167 166 166 169 170 170 170 168 166 165 165 165 163 165 168 170 169 168 170 170 171 175 174 173 179 182 181 185 191 192 189 190 198 199 205 209 206 210 217 228 227 224 231 333 353 4 354 344 346 350 353 354 355 349 338 336 337 335 333 332 330 329 333 334 333
215 129 139 153 154 150 149 134 128 128 117 111 114 117 128 121 122 141 142 144 155 154 150 148 150 153 154 154 157 160 160 164 168 169 171 171 173 174 171 171 171 170 170 168 165 168 171 171 171 170 171 170 167 172 177 174 176 183 184 189 192 194 196 194 197 197 203 209 209 214 224 238 239 239 285 356 354 354 349 345 345 342 338 338 344 345 332 321 323 331 328 327 328 325 322 316 310
183 124 145 159 153 149 146 137 131 126 115 113 116 115 119 116 126 141 137 143 150 151 150 148 149 151 153 155 159 162 162 165 170 173 174 172 174 174 172 172 172 171 173 173 167 170 177 175 174 175 173 172 170 173 181 177 173 181 186 193 195 200 206 203 202 199 203 211 211 219 231 244 241 248 313 351 349 350 345 337 336 331 322 321 326 328 316 303 305 313 316 313 317 319 315 310 305
151 135 150 156 148 142 133 127 123 120 120 119 112 102 101 112 118 124 131 141 146 148 150 150 150 152 154 158 160 163 164 166 171 174 174 174 172 170 171 171 170 172 175 177 173 173 180 180 177 179 178 177 178 180 183 181 179 185 188 191 197 206 208 207 210 209 216 227 224 224 234 244 245 262 305 330 334 338 332 324 325 322 315 314 316 317 311 304 299 297 300 299 310 319 317 312 307
151 144 144 140 129 126 124 122 122 122 124 120 107 93 95 107 110 113 132 140 145 147 149 151 153 156 159 162 163 165 166 168 172 173 174 174 170 168 171 172 174 176 175 180 180 176 180 183 181 182 184 183 187 189 188 189 191 195 196 193 199 206 208 213 219 221 228 238 236 230 235 243 250 266 282 307 323 324 318 313 314 313 310 310 309 310 308 303 292 285 282 280 301 315 317 315 311
146 137 131 129 122 121 122 120 122 122 124 124 118 106 100 109 112 116 139 142 146 147 149 154 155 156 160 165 166 167 169 171 173 172 174 175 172 172 172 176 179 180 180 182 183 182 182 186 186 187 191 192 196 199 197 201 205 207 208 205 208 214 221 230 236 236 233 234 234 232 239 247 251 260 274 300 315 313 308 308 310 309 308 307 306 305 303 298 290 287 282 282 298 310 313 315 314
139 130 115 117 121 121 122 122 126 123 124 127 121 107 95 103 117 137 146 145 148 148 151 157 159 160 163 168 169 171 174 172 171 171 173 176 177 178 180 182 182 182 186 186 185 186 187 189 190 193 199 202 204 207 209 213 216 220 221 219 223 228 233 240 246 245 236 232 229 232 240 246 252 261 279 299 307 306 303 305 308 309 308 305 304 303 302 299 294 292 287 286 295 306 312 315 314
134 126 109 112 118 124 129 131 133 126 127 130 119 98 94 102 130 145 148 148 150 149 153 160 162 166 169 171 171 173 174 172 172 174 177 180 183 184 183 184 185 186 190 191 189 190 194 195 196 201 207 211 212 213 217 219 221 227 229 227 227 227 234 242 244 241 236 231 231 237 241 244 253 264 281 294 299 302 300 304 308 310 308 305 305 304 302 301 299 297 292 290 295 306 314 315 311
129 119 120 126 115 134 142 135 133 128 138 138 126 107 152 138 139 148 151 151 152 151 157 163 164 168 169 170 170 171 172 172 175 178 182 185 185 186 183 182 186 189 191 193 194 197 202 202 202 207 209 212 216 219 219 217 220 225 228 228 226 227 233 237 236 234 230 228 232 239 245 252 262 272 282 285 287 295 299 304 308 306 303 301 305 308 306 307 307 307 306 305 310 314 312 310 307
127 117 128 128 117 167 166 143 136 130 147 146 131 115 173 168 144 150 155 154 154 156 162 165 166 168 168 171 174 176 179 181 182 181 186 188 184 185 186 186 187 189 191 193 197 201 203 204 206 208 206 208 216 221 220 219 224 228 229 229 229 232 234 234 235 234 231 233 241 247 254 262 269 276 279 277 277 285 292 300 303 299 295 295 300 306 310 318 319 317 320 320 319 316 312 311 310
104 135 146 133 126 165 181 157 147 139 152 149 124 108 166 169 156 154 156 158 157 159 166 168 167 169 171 176 180 183 187 189 188 185 188 190 189 191 194 194 192 192 194 194 197 201 203 206 209 208 205 210 217 219 218 219 224 229 231 232 237 241 243 244 244 243 240 242 248 253 258 262 265 268 268 267 269 274 285 296 300 297 294 295 298 303 312 322 323 320 323 323 320 317 316 317 315
70 139 164 154 136 159 181 180 163 144 149 154 126 136 168 169 167 160 158 161 161 161 168 169 168 171 174 178 182 184 187 189 191 191 191 192 195 199 200 197 194 194 197 198 200 205 208 209 209 203 202 210 217 215 215 219 221 226 230 233 242 249 253 256 253 252 251 248 251 252 255 257 258 260 259 258 262 275 289 295 297 298 297 297 296 301 314 320 319 319 324 326 322 323 326 325 321
223 114 144 154 148 163 168 192 182 150 148 164 141 145 168 170 168 165 165 166 166 167 170 170 170 173 178 182 185 187 189 190 192 194 196 197 199 202 201 199 196 195 199 204 206 211 216 213 206 197 197 202 207 210 213 218 224 230 234 238 244 250 253 256 257 259 259 258 258 258 259 260 257 254 257 264 273 286 290 290 294 301 297 290 290 300 310 313 312 313 319 325 327 331 335 335 329
181 157 142 158 159 170 170 174 184 161 150 153 146 150 163 164 166 169 171 170 170 174 174 172 172 176 181 185 187 189 194 195 197 198 199 200 199 200 201 199 197 195 200 207 210 216 220 213 203 198 197 193 197 206 209 216 228 233 239 248 252 255 257 259 264 265 264 266 264 263 263 262 260 254 257 274 287 286 282 285 296 302 298 288 290 302 307 308 307 306 313 324 333 337 339 342 337
184 174 157 169 169 182 181 171 177 165 149 151 155 155 158 162 170 174 173 172 173 177 178 174 175 180 184 188 190 191 196 199 200 201 199 198 197 196 197 195 194 195 200 205 211 218 215 204 202 201 198 193 193 199 204 211 221 229 238 247 252 258 263 263 266 266 268 269 265 262 260 260 264 265 267 274 279 282 280 288 297 299 300 293 289 296 300 309 320 318 319 327 332 335 341 347 343
200 179 168 176 169 192 193 175 178 160 141 166 164 154 161 167 175 178 173 172 174 178 180 178 179 182 185 189 192 193 197 200 201 201 197 195 194 193 194 191 191 194 198 204 212 217 208 200 201 201 197 195 194 197 203 205 210 223 231 238 245 250 251 248 254 262 264 266 265 261 257 255 261 266 259 262 277 287 283 291 301 300 299 298 298 297 298 316 341 334 327 328 328 331 340 348 342
222 195 185 189 176 195 196 171 176 157 131 170 166 152 166 172 175 180 172 172 177 180 181 182 184 186 188 190 192 194 196 198 199 196 194 192 191 193 194 193 193 195 199 206 214 215 205 200 201 199 196 195 195 199 203 200 200 209 215 223 225 221 225 221 213 212 209 218 233 231 223 220 226 237 249 266 284 290 290 296 303 303 298 297 301 303 310 332 343 333 332 332 328 329 336 342 338
232 226 182 202 196 175 202 177 170 162 129 165 169 156 172 180 177 178 176 178 183 182 183 185 186 185 186 189 191 192 191 192 191 188 189 190 190 192 194 196 199 200 204 208 213 213 205 199 198 198 197 195 195 199 200 196 189 188 191 198 196 196 203 195 189 194 191 187 191 202 206 202 215 239 258 275 282 284 289 292 294 296 293 292 297 305 319 337 335 331 333 331 328 330 333 337 339
223 231 194 211 205 160 218 195 167 162 136 159 165 155 174 186 182 183 183 184 184 184 185 187 188 187 188 191 191 188 188 187 183 183 186 188 190 194 198 201 204 205 208 210 211 210 203 196 192 192 193 193 193 194 192 185 181 186 193 194 193 196 197 195 204 212 211 204 198 204 211 213 225 242 256 267 274 279 283 282 281 284 285 288 293 298 306 317 321 324 327 326 329 331 332 338 353
226 216 199 192 201 202 218 182 155 117 119 151 141 124 195 193 189 198 190 187 186 185 185 185 188 190 189 190 190 189 189 187 183 184 187 191 194 199 203 207 208 208 210 212 211 205 197 191 189 190 189 187 185 186 189 192 194 199 202 200 201 206 205 206 213 218 225 227 214 213 219 219 223 233 247 261 279 289 286 278 276 275 270 266 270 282 294 305 311 315 317 321 326 327 328 336 358
252 220 194 184 197 210 203 162 141 88 126 169 141 133 237 225 199 203 194 187 189 187 186 186 188 188 185 185 187 189 189 189 189 190 192 195 199 203 207 209 209 211 210 210 206 198 190 187 190 190 184 182 182 186 193 198 202 207 210 211 214 217 214 212 215 219 230 235 226 224 223 215 217 233 254 276 291 294 286 280 280 277 267 265 277 290 301 308 311 314 317 319 319 320 317 321 333
258 227 196 194 193 190 174 162 154 127 184 194 167 153 198 233 221 212 196 184 190 192 190 190 189 186 184 185 187 188 188 190 192 195 196 198 200 203 206 207 207 208 205 201 198 194 189 188 191 190 182 182 187 191 196 200 205 211 215 220 227 231 226 221 217 215 224 235 243 251 257 252 250 260 273 280 280 276 276 288 296 299 296 296 302 303 306 312 314 318 322 319 315 312 307 311 313
249 234 206 205 187 175 170 166 174 166 154 185 192 124 119 198 222 208 194 189 193 197 195 193 192 189 188 187 189 188 189 191 192 194 197 199 201 202 203 203 203 203 199 196 194 191 189 188 190 188 184 187 194 200 204 205 210 217 221 224 229 231 228 223 217 216 229 243 250 258 265 264 261 266 271 269 263 260 266 282 294 303 307 309 314 315 314 316 314 316 320 318 313 313 316 314 311
244 239 216 203 181 180 176 170 183 161 124 173 224 109 111 224 241 176 187 199 200 202 199 196 193 192 191 189 190 190 191 192 193 195 198 200 202 202 201 201 201 201 198 195 192 188 188 188 187 186 187 192 200 207 210 211 217 224 228 228 226 227 227 228 229 232 239 243 247 251 253 253 253 256 256 253 253 253 256 269 286 303 311 314 318 321 320 315 314 320 324 329 331 334 338 324 326
243 242 225 206 153 166 175 172 171 138 137 188 207 185 157 253 255 169 184 207 209 206 200 198 195 193 193 192 192 192 192 193 195 197 199 201 203 203 201 199 200 201 198 196 192 188 188 188 187 187 190 196 203 209 213 215 219 224 229 234 236 236 236 235 235 237 238 239 241 243 245 248 246 243 241 240 243 245 250 259 270 291 301 305 304 308 323 333 344 1 6 6 0 348 351 336 341
240 257 234 235 21 84 139 133 120 135 182 209 202 198 192 228 242 195 189 205 205 200 192 194 196 195 195 194 194 193 193 193 195 197 199 201 203 201 198 197 198 198 197 196 194 190 190 191 190 191 194 200 206 212 216 216 220 226 231 238 244 242 237 232 229 228 229 228 230 232 237 242 240 240 240 235 233 238 246 251 257 279 287 289 290 297 326 0 29 40 35 27 10 341 341 342 345
218 246 185 223 311 34 47 9 68 160 228 230 201 199 197 219 244 212 211 215 205 194 187 185 191 196 196 195 195 195 194 194 195 196 198 197 197 196 195 195 196 196 197 197 195 193 194 194 194 196 199 204 209 215 218 219 223 228 232 236 237 231 224 221 220 219 219 216 218 222 224 231 241 247 242 226 226 239 248 250 253 265 268 269 277 286 299 2 45 53 52 35 4 333 339 348 348
204 215 108 144 266 352 69 268 204 197 243 236 189 184 195 221 229 210 212 220 213 199 192 184 186 192 192 193 196 196 195 195 195 196 196 195 194 193 193 193 194 195 197 197 195 194 196 198 198 200 205 208 212 217 219 222 228 230 229 228 224 217 212 215 221 223 222 221 223 227 228 238 249 249 240 226 228 243 253 256 257 253 249 252 254 251 235 229 262 21 74 45 352 330 338 346 345
198 195 145 155 166 132 211 238 234 210 257 257 186 172 196 241 243 215 206 213 213 204 195 187 186 189 189 190 194 196 195 196 196 196 195 195 194 194 194 194 194 195 197 197 195 195 198 200 201 203 209 211 214 219 221 225 231 229 226 224 217 212 211 219 232 232 228 228 231 236 239 245 250 245 238 231 232 243 254 261 264 260 260 264 259 253 257 259 275 302 328 350 348 335 331 330 322
209 172 145 165 160 156 200 202 196 204 232 256 207 172 193 204 235 217 203 212 211 198 191 189 188 189 187 187 191 195 196 196 197 196 196 197 197 195 195 196 196 195 196 196 195 197 200 202 203 206 210 213 216 219 222 227 230 226 224 221 211 210 216 221 228 225 220 222 227 234 240 245 248 242 237 237 240 247 255 261 268 280 288 281 271 271 274 276 285 298 308 320 333 330 325 323 314
231 149 124 176 178 161 185 192 187 181 202 242 212 202 211 203 265 264 185 202 194 178 182 186 184 184 183 184 188 193 196 197 197 197 198 199 198 197 197 197 198 197 197 197 196 198 202 205 207 208 211 214 217 219 221 226 229 225 221 218 207 206 215 217 217 213 211 216 223 233 243 243 238 231 231 236 241 247 254 260 272 287 293 284 276 281 283 283 289 299 307 314 323 323 320 321 318
221 185 180 211 177 148 157 232 236 112 155 259 236 269 306 289 322 353 101 135 152 164 176 180 179 178 178 182 187 192 196 197 198 199 200 200 199 198 198 198 199 199 199 199 199 200 204 207 209 210 212 214 216 219 221 224 228 223 218 216 206 203 212 214 212 207 205 210 218 228 235 231 222 219 222 229 236 246 260 273 279 284 289 290 285 283 284 285 292 301 306 311 320 322 317 317 317
155 206 209 204 148 119 119 196 326 59 153 280 283 258 270 165 287 326 110 148 168 172 172 176 180 177 177 183 188 192 197 199 201 202 202 201 200 199 199 200 201 202 202 202 202 203 205 208 211 211 212 213 215 218 220 222 226 223 217 214 206 200 207 213 213 211 207 207 213 221 224 218 214 215 220 239 256 266 276 282 281 282 288 290 286 284 284 285 287 292 296 301 309 312 311 310 308
154 185 189 162 163 192 117 160 164 108 205 274 296 272 232 192 216 210 172 179 181 175 172 177 182 181 183 186 186 190 196 199 200 200 200 201 201 200 200 202 203 204 206 205 205 205 207 210 213 214 215 216 215 217 219 221 224 223 217 212 207 201 203 210 214 215 213 207 208 222 229 223 219 221 234 261 273 276 279 281 284 288 289 287 288 289 289 289 291 295 299 303 307 307 305 304 301
169 143 169 185 172 175 182 169 158 161 195 227 277 290 261 223 208 186 186 190 177 170 178 186 188 188 189 189 188 189 193 197 198 199 201 202 202 203 203 204 205 206 207 207 205 206 208 211 213 215 217 218 218 218 219 220 223 222 216 210 207 203 203 210 215 220 220 210 207 224 236 233 224 229 253 273 280 280 278 285 292 292 288 287 294 301 302 301 301 303 307 312 317 317 311 307 302
196 159 179 220 287 142 168 187 152 145 158 185 214 261 266 248 211 183 183 184 178 177 182 190 191 191 194 196 195 193 193 196 198 200 203 204 204 204 205 205 206 206 206 206 206 208 210 212 214 215 217 218 219 219 220 221 223 221 215 209 206 203 204 210 215 223 223 212 207 214 221 224 220 232 258 272 285 286 283 292 302 300 294 293 302 311 311 309 310 313 317 319 318 316 311 308 301
177 165 184 192 160 127 160 229 287 132 156 171 175 219 264 260 204 183 184 183 183 182 178 184 192 194 198 201 201 199 195 197 199 202 206 207 206 205 204 204 205 205 205 206 207 209 210 212 214 215 216 218 219 220 220 221 221 220 215 209 204 200 204 210 216 224 223 212 204 201 204 217 225 241 256 267 281 288 286 292 306 314 311 306 308 314 314 313 316 317 317 315 311 307 306 305 302